Location: ????????
(38.4362°N, 22.8767°E)
Time: 03:55:37
(UTC+00:00)

SL-08 ROCKET BODY - Pass Details

Date: 23 April 2024
Orbit: 897 x 961 km, 82.9° (Epoch: 20 May)

Event Time Altitude Azimuth Distance (km) Brightness Sun altitude
Exits shadow 01:51:36 21° 185° (S) 1,941 5.7 -20.0°
Maximum altitude 01:55:45 89° 100° (E) 930 4.3 -19.4°
Drops below altitude 10° 02:01:50 10° 7° (N) 2,655 7.3 -18.4°
Sets 02:04:21 0° 8° (N) 3,613 8.1 -18.0°
